Portsmouth, NH

4:54 PM EST on February 21, 2017 (GMT -0500)
Pease International Tradeport

Weather History for KPSM - February, 2014

Change the Weather History Date:

Friday, February 7, 2014

  Actual Average Record
Temperature  
Mean Temperature 18 °F -  
Max Temperature 28 °F 33 °F 49 °F (1987)
Min Temperature 9 °F 17 °F -8 °F (1995)
Degree Days  
Heating Degree Days 46    
Moisture  
Dew Point 4 °F    
Average Humidity 53    
Maximum Humidity 76    
Minimum Humidity 37    
Precipitation  
Precipitation 0.00 in - - ()
Snow  
Snow 0.00 in - - ()
Snow Depth 8.00 in    
Sea Level Pressure  
Sea Level Pressure 30.18 in    
Wind  
Wind Speed 7 mph (WSW)    
Max Wind Speed 13 mph    
Max Gust Speed 18 mph    
Visibility 10 miles    
Events      
Averages and records for this station are not official NWS values.
T = Trace of Precipitation, MM = Missing Value Source: NWS Daily Summary

Daily Weather History Graph

Daily Weather History Graph

Search for Another Location

Airport or City:

Trip Planner

Search our weather history database for the weather conditions in past years. The results will help you decide how hot, cold, wet, or windy it might be!

Date:

Astronomy

Feb. 07, 2014 Rise Set
Actual Time 6:51 AM EST 5:03 PM EST
Civil Twilight 6:21 AM EST 5:33 PM EST
Nautical Twilight 5:48 AM EST 6:07 PM EST
Astronomical Twilight 5:15 AM EST 6:40 PM EST
Moon 11:11 AM EST (2/7) 1:05 AM EST (2/7)
Length of Visible Light 11h 11m
Length of Day
10h 12m
First Quarter, 59% of the Moon is Illuminated
Feb 7
First Quarter
Feb 14
Full
Feb 22
Last Quarter
Mar 1
New
Mar 8
First Quarter

Hourly Weather History & Observations

Time (EST) Temp. Windchill Dew Point Humidity Pressure Visibility Wind Dir Wind Speed Gust Speed Precip Events Conditions
12:58 AM 12.2 °F 2.9 °F 4.6 °F 72% 30.19 in 10.0 mi SW 5.8 mph - N/A   Partly Cloudy
1:58 AM 12.9 °F 3.8 °F 4.6 °F 70% 30.18 in 10.0 mi WSW 5.8 mph - N/A   Partly Cloudy
2:58 AM 11.8 °F 3.9 °F 4.8 °F 73% 30.18 in 10.0 mi SW 4.6 mph - N/A   Partly Cloudy
3:58 AM 10.0 °F 0.4 °F 3.7 °F 76% 30.18 in 10.0 mi WSW 5.8 mph - N/A   Partly Cloudy
4:58 AM 10.8 °F 2.7 °F 4.6 °F 76% 30.19 in 10.0 mi WSW 4.6 mph - N/A   Partly Cloudy
5:58 AM 9.3 °F -0.5 °F 1.8 °F 71% 30.20 in 10.0 mi SW 5.8 mph - N/A   Partly Cloudy
6:58 AM 9.7 °F -0.1 °F 2.1 °F 71% 30.20 in 10.0 mi SW 5.8 mph - N/A   Clear
7:58 AM 11.3 °F -0.4 °F 3.7 °F 72% 30.22 in 10.0 mi West 8.1 mph - N/A   Clear
8:58 AM 15.4 °F 5.6 °F 4.3 °F 61% 30.23 in 10.0 mi SW 6.9 mph - N/A   Clear
9:58 AM 20.7 °F 9.5 °F 6.6 °F 55% 30.23 in 10.0 mi WSW 10.4 mph - N/A   Clear
10:58 AM 23.4 °F 11.6 °F 6.6 °F 49% 30.22 in 10.0 mi WSW 12.7 mph 18.4 mph N/A   Partly Cloudy
11:58 AM 25.3 °F 14.1 °F 6.6 °F 45% 30.19 in 10.0 mi WSW 12.7 mph - N/A   Partly Cloudy
12:58 PM 26.8 °F 15.9 °F 6.3 °F 42% 30.15 in 10.0 mi West 12.7 mph - N/A   Scattered Clouds
1:58 PM 27.9 °F 19.8 °F 6.1 °F 40% 30.13 in 10.0 mi West 8.1 mph - N/A   Partly Cloudy
2:58 PM 28.0 °F 18.1 °F 5.7 °F 39% 30.13 in 10.0 mi WSW 11.5 mph - N/A   Partly Cloudy
3:58 PM 28.0 °F 18.1 °F 5.0 °F 38% 30.13 in 10.0 mi WSW 11.5 mph - N/A   Partly Cloudy
4:58 PM 26.6 °F 16.2 °F 4.3 °F 39% 30.15 in 10.0 mi WSW 11.5 mph - N/A   Partly Cloudy
5:58 PM 24.8 °F 19.1 °F 3.6 °F 40% 30.15 in 10.0 mi WSW 4.6 mph - N/A   Partly Cloudy
6:58 PM 24.1 °F 19.7 °F 4.3 °F 43% 30.15 in 10.0 mi West 3.5 mph - N/A   Mostly Cloudy
7:58 PM 25.0 °F 14.2 °F 3.9 °F 41% 30.17 in 10.0 mi West 11.5 mph - N/A   Mostly Cloudy
8:58 PM 25.5 °F 14.9 °F 3.9 °F 40% 30.18 in 10.0 mi West 11.5 mph - N/A   Overcast
9:58 PM 24.4 °F 13.5 °F 2.1 °F 38% 30.19 in 10.0 mi WSW 11.5 mph 18.4 mph N/A   Scattered Clouds
10:58 PM 23.4 °F 14.3 °F 0.7 °F 37% 30.19 in 10.0 mi WSW 8.1 mph - N/A   Scattered Clouds
11:58 PM 20.7 °F - -0.8 °F 39% 30.20 in 10.0 mi West 2.3 mph - N/A   Clear